KM5R Weather Reports


time (UTC)temp
C
wind
direction
speed
KPH
gust
KPH
rain 1hr
cm
rain 24hr
cm
rain mn
cm
humidity
%
barometer
mb
20260509185438 29 297 1.6 3.2 0.00 0.84 0.84 47 1012.6
20260509184935 28 143 3.2 4.8 0.00 0.84 0.84 48 1012.7
20260509184433 28 40 0.0 1.6 0.00 0.84 0.84 47 1012.9
20260509183929 28 12 1.6 1.6 0.00 0.84 0.84 48 1012.8
20260509183428 28 68 3.2 3.2 0.00 0.84 0.84 51 1012.9
20260509182925 28 61 0.0 1.6 0.00 0.84 0.84 53 1012.8
20260509182422 28 27 6.4 8.0 0.00 0.84 0.84 53 1013.0
20260509181919 27 71 1.6 1.6 0.00 0.84 0.84 53 1013.0
20260509181417 28 117 8.0 9.7 0.00 0.84 0.84 54 1013.2
20260509180914 28 99 3.2 4.8 0.00 0.84 0.84 51 1013.3
20260509180409 28 46 1.6 1.6 0.00 0.84 0.84 53 1013.1
20260509175907 27 58 0.0 0.0 0.00 0.84 0.84 56 1013.5
20260509175403 27 31 3.2 3.2 0.00 0.84 0.84 55 1013.5
20260509174900 27 75 0.0 0.0 0.00 0.84 0.84 53 1013.6
20260509174356 27 32 1.6 1.6 0.00 0.84 0.84 52 1013.6
20260509173852 27 212 3.2 3.2 0.00 0.84 0.84 54 1013.8
20260509173352 27 102 1.6 1.6 0.00 0.84 0.84 53 1013.6
20260509172848 27 97 1.6 1.6 0.00 0.84 0.84 54 1013.6
20260509172345 27 219 4.8 4.8 0.00 0.84 0.84 55 1013.5
20260509171841 27 245 4.8 8.0 0.00 0.84 0.84 58 1013.4
20260509171337 27 355 3.2 3.2 0.00 0.84 0.84 58 1013.5
20260509170833 27 320 6.4 9.7 0.00 0.84 0.84 56 1013.5
20260509170329 26 54 1.6 1.6 0.00 0.84 0.84 58 1013.7
20260509165824 26 78 4.8 4.8 0.00 0.84 0.84 59 1013.6
20260509165318 26 32 3.2 4.8 0.00 0.84 0.84 57 1013.9
20260509164815 25 40 0.0 1.6 0.00 0.84 0.84 59 1013.8
20260509164311 25 329 3.2 3.2 0.00 0.84 0.84 58 1013.7
20260509163808 25 309 6.4 8.0 0.00 0.84 0.84 59 1013.9
20260509163304 25 348 8.0 9.7 0.00 0.84 0.84 59 1013.8
20260509162803 25 335 8.0 9.7 0.00 0.84 0.84 58 1013.9
20260509162256 26 15 11.3 14.5 0.00 0.84 0.84 60 1014.0
20260509161753 25 27 4.8 4.8 0.00 0.84 0.84 62 1013.9
20260509161249 25 300 9.7 11.3 0.00 0.84 0.84 63 1014.1
20260509160744 25 345 8.0 9.7 0.00 0.84 0.84 63 1014.1
20260509160241 25 305 3.2 3.2 0.00 0.84 0.84 64 1013.8
20260509155737 25 357 8.0 11.3 0.00 0.84 0.84 64 1013.8
20260509155234 25 279 6.4 8.0 0.00 0.84 0.84 64 1013.9
20260509154730 25 328 11.3 12.9 0.00 0.84 0.84 64 1013.8
20260509154226 23 296 4.8 8.0 0.00 0.84 0.84 65 1013.7
20260509153724 23 329 8.0 9.7 0.00 0.84 0.84 65 1013.7
20260509153219 23 23 3.2 3.2 0.00 0.84 0.84 65 1013.8
20260509152715 23 300 8.0 9.7 0.00 0.84 0.84 66 1013.9
20260509152212 23 304 8.0 9.7 0.00 0.84 0.84 65 1013.7
20260509151709 23 320 4.8 9.7 0.00 0.84 0.84 66 1013.9
20260509151206 23 26 4.8 9.7 0.00 0.84 0.84 67 1013.7
20260509150704 23 309 17.7 20.9 0.00 0.84 0.84 67 1013.7
20260509150202 22 323 4.8 8.0 0.00 0.84 0.84 70 1013.6
20260509145658 22 356 9.7 11.3 0.00 0.84 0.84 70 1013.6
20260509145153 22 347 12.9 14.5 0.00 0.84 0.84 70 1013.4
20260509144650 22 332 14.5 20.9 0.00 0.84 0.84 70 1013.5
20260509144148 22 327 19.3 25.7 0.00 0.84 0.84 71 1013.3
20260509143644 22 294 14.5 16.1 0.00 0.84 0.84 71 1013.1
20260509143142 22 303 9.7 11.3 0.00 0.84 0.84 72 1013.1
20260509142637 22 288 12.9 20.9 0.00 0.84 0.84 71 1013.2
20260509142134 22 303 12.9 17.7 0.00 0.84 0.84 70 1013.1
20260509141630 22 316 9.7 14.5 0.00 0.84 0.84 72 1013.2
20260509141126 22 291 16.1 17.7 0.00 0.84 0.84 69 1013.2
20260509140624 22 289 14.5 17.7 0.00 0.84 0.84 70 1013.2
20260509140122 22 311 12.9 16.1 0.00 0.84 0.84 69 1013.0
20260509135618 22 301 8.0 9.7 0.00 0.84 0.84 68 1013.2
20260509135117 22 330 6.4 8.0 0.00 0.84 0.84 70 1013.1
20260509134613 23 25 3.2 3.2 0.00 0.84 0.84 69 1013.0
20260509134110 23 10 1.6 1.6 0.00 0.84 0.84 71 1012.9
20260509133607 23 74 0.0 0.0 0.00 0.84 0.84 73 1012.9
20260509133105 23 82 1.6 1.6 0.00 0.84 0.84 73 1013.1
20260509132603 24 34 3.2 3.2 0.00 0.84 0.84 71 1013.2
20260509132101 23 111 0.0 0.0 0.00 0.84 0.84 72 1012.8
20260509131557 22 111 0.0 0.0 0.00 0.84 0.84 75 1012.8
20260509131054 21 175 3.2 3.2 0.00 0.84 0.84 75 1012.9
20260509130549 21 169 6.4 8.0 0.00 0.84 0.84 76 1012.8
20260509130046 21 233 4.8 4.8 0.00 0.84 0.84 76 1013.0
20260509125543 20 267 3.2 3.2 0.00 0.84 0.84 78 1012.7
20260509125039 20 262 4.8 8.0 0.00 0.84 0.84 78 1012.3
20260509124536 20 323 4.8 4.8 0.00 0.84 0.84 80 1012.3
20260509124033 19 218 6.4 9.7 0.00 0.84 0.84 81 1012.2
20260509123532 19 295 6.4 8.0 0.00 0.84 0.84 81 1012.0
20260509123028 19 222 8.0 9.7 0.00 0.84 0.84 80 1011.9
20260509122524 19 279 8.0 11.3 0.00 0.84 0.84 79 1011.8
20260509122021 19 241 11.3 12.9 0.00 0.84 0.84 78 1011.9
20260509121518 19 245 8.0 8.0 0.00 0.84 0.84 77 1011.6
20260509121016 20 251 8.0 8.0 0.00 0.84 0.84 77 1011.3
20260509120514 19 213 3.2 3.2 0.00 0.84 0.84 77 1011.0
20260509120011 19 203 8.0 9.7 0.00 0.84 0.84 78 1010.9
20260509115508 17 168 4.8 4.8 0.00 0.84 0.84 85 1010.9
20260509115006 17 248 6.4 8.0 0.00 0.84 0.84 85 1010.9
20260509114504 17 300 4.8 4.8 0.00 0.84 0.84 85 1010.9
20260509114002 17 41 3.2 4.8 0.00 0.84 0.84 86 1010.6
20260509113500 17 110 8.0 9.7 0.00 0.84 0.84 88 1010.6
20260509112956 17 181 8.0 9.7 0.00 0.84 0.84 88 1010.4
20260509112454 17 188 6.4 11.3 0.00 0.84 0.84 88 1009.7
20260509111950 17 129 8.0 12.9 0.00 0.84 0.84 89 1009.3
20260509111448 17 125 8.0 11.3 0.00 0.84 0.84 89 1010.2
20260509110945 18 146 6.4 9.7 0.00 0.84 0.84 89 1010.7
20260509110442 18 126 8.0 11.3 0.00 0.84 0.84 89 1011.0
20260509105939 18 124 4.8 8.0 0.00 0.84 0.84 89 1011.4
20260509105437 18 71 1.6 3.2 0.00 0.84 0.84 89 1011.3
20260509104934 18 71 4.8 4.8 0.00 0.84 0.84 89 1011.7
20260509104431 18 204 3.2 3.2 0.00 0.84 0.84 89 1013.0
20260509103928 18 256 1.6 3.2 0.00 0.84 0.84 89 1013.4
20260509103425 18 241 4.8 4.8 0.00 0.84 0.84 89 1013.6
20260509102924 18 220 8.0 11.3 0.00 0.84 0.84 89 1014.1
20260509102421 18 212 9.7 11.3 0.13 0.84 0.84 89 1014.3
20260509101916 17 218 16.1 16.1 0.13 0.84 0.84 89 1014.0
20260509101413 17 246 11.3 12.9 0.48 0.81 0.81 89 1014.0
20260509100911 18 93 3.2 3.2 0.61 0.81 0.81 89 1013.8
20260509100407 17 312 1.6 3.2 0.43 0.74 0.74 89 1013.7
20260509095904 17 71 4.8 4.8 2.29 0.71 0.71 90 1013.5
20260509095402 17 40 12.9 17.7 3.35 0.58 0.58 90 1013.5
20260509094858 19 318 12.9 14.5 1.68 0.28 0.28 90 1013.9
20260509094355 18 229 3.2 4.8 0.18 0.03 0.03 90 1014.2
20260509093853 18 169 4.8 8.0 0.00 0.00 0.00 90 1013.7
20260509093350 18 1 0.0 1.6 0.00 0.00 0.00 90 1014.1
20260509092848 18 9 3.2 3.2 0.00 0.00 0.00 90 1014.1
20260509092346 18 228 1.6 1.6 0.00 0.00 0.00 90 1014.3
20260509091844 18 5 1.6 1.6 0.00 0.00 0.00 90 1014.2
20260509091340 18 269 4.8 4.8 0.00 0.00 0.00 90 1014.5
20260509090838 18 305 3.2 3.2 0.00 0.00 0.00 90 1014.1
20260509090336 18 272 8.0 9.7 0.00 0.00 0.00 90 1014.2
20260509085832 18 279 11.3 16.1 0.00 0.00 0.00 90 1014.2
20260509085329 18 302 4.8 4.8 0.00 0.00 0.00 90 1014.0
20260509084826 18 311 6.4 9.7 0.00 0.00 0.00 90 1014.2
20260509084323 18 358 9.7 11.3 0.00 0.00 0.00 90 1014.0
20260509083821 18 330 4.8 4.8 0.00 0.00 0.00 90 1013.8
20260509083317 17 51 0.0 0.0 0.00 0.00 0.00 90 1013.6
20260509082814 18 46 0.0 0.0 0.00 0.00 0.00 90 1013.5
20260509082310 18 207 1.6 1.6 0.00 0.00 0.00 90 1013.5
20260509081808 18 209 3.2 3.2 0.00 0.00 0.00 90 1013.4
20260509081305 19 228 4.8 4.8 0.00 0.00 0.00 90 1013.2
20260509080803 18 290 4.8 4.8 0.00 0.00 0.00 90 1013.0
20260509080300 18 7 1.6 1.6 0.00 0.00 0.00 90 1013.7
20260509075758 18 316 4.8 4.8 0.00 0.00 0.00 90 1013.7
20260509075255 18 31 0.0 0.0 0.00 0.00 0.00 90 1013.3
20260509074752 18 303 4.8 4.8 0.00 0.00 0.00 90 1013.8
20260509074250 18 24 0.0 0.0 0.00 0.00 0.00 90 1012.9
20260509073746 18 136 0.0 0.0 0.00 0.00 0.00 90 1012.9
20260509073242 18 237 0.0 0.0 0.00 0.00 0.00 90 1013.2
20260509072740 18 111 0.0 0.0 0.00 0.00 0.00 90 1013.0
20260509072236 18 87 0.0 0.0 0.00 0.00 0.00 90 1013.0
20260509071733 18 72 0.0 0.0 0.00 0.00 0.00 90 1012.9
20260509071230 17 61 0.0 0.0 0.00 0.00 0.00 90 1013.1
20260509070727 17 58 0.0 0.0 0.00 0.00 0.00 90 1013.0
20260509070223 17 67 0.0 0.0 0.00 0.00 0.00 90 1013.2
20260509065719 17 69 0.0 0.0 0.00 0.00 0.00 90 1013.5
20260509065215 17 69 0.0 0.0 0.00 0.00 0.00 90 1013.4
20260509064712 17 78 0.0 0.0 0.00 0.00 0.00 90 1013.1
20260509064210 17 74 0.0 0.0 0.00 0.00 0.00 90 1013.1
20260509063707 17 88 0.0 0.0 0.00 0.00 0.00 90 1013.1
20260509063203 17 86 0.0 0.0 0.00 0.00 0.00 89 1012.9
20260509062700 17 87 1.6 1.6 0.00 0.00 0.00 89 1012.9
20260509062158 17 143 1.6 3.2 0.00 0.00 0.00 89 1013.0
20260509061654 17 139 3.2 4.8 0.00 0.00 0.00 89 1013.0
20260509061152 17 118 6.4 8.0 0.00 0.00 0.00 89 1012.8
20260509060649 17 95 0.0 0.0 0.00 0.00 0.00 89 1012.6
20260509060145 16 95 0.0 0.0 0.00 0.00 0.00 89 1012.5
20260509055641 16 53 0.0 0.0 0.00 0.00 0.00 89 1012.6
20260509055137 16 51 0.0 0.0 0.00 0.00 0.00 89 1012.1
20260509054634 16 50 0.0 0.0 0.00 0.00 0.00 89 1012.1
20260509054132 17 116 1.6 3.2 0.00 0.00 0.00 89 1012.6
20260509053630 18 111 0.0 0.0 0.00 0.00 0.00 89 1012.7
20260509053126 18 112 0.0 0.0 0.00 0.00 0.00 89 1012.8
20260509052625 17 109 0.0 0.0 0.00 0.00 0.00 88 1012.6
20260509052122 17 94 0.0 0.0 0.00 0.00 0.00 88 1012.8
20260509051620 17 49 0.0 0.0 0.00 0.00 0.00 88 1012.5
20260509051116 17 3 0.0 0.0 0.00 0.00 0.00 88 1012.8
20260509050614 18 69 0.0 0.0 0.00 0.00 0.00 88 1012.8
20260509050110 18 60 0.0 0.0 0.00 0.00 0.00 88 1012.5
20260509045608 17 60 0.0 0.0 0.00 0.00 0.00 88 1012.7
20260509045104 18 60 0.0 0.0 0.00 0.00 0.00 88 1012.8
20260509044601 17 60 0.0 0.0 0.00 0.00 0.00 88 1012.6
20260509044059 17 60 0.0 0.0 0.00 0.00 0.00 88 1012.6
20260509043556 17 60 0.0 0.0 0.00 0.00 0.00 88 1012.6
20260509043051 17 60 0.0 0.0 0.00 0.00 0.00 88 1012.6
20260509042547 17 60 0.0 0.0 0.00 0.00 0.00 88 1012.6
20260509042043 18 60 0.0 0.0 0.00 0.00 0.00 88 1012.5
20260509041540 18 23 0.0 0.0 0.00 0.00 0.00 88 1012.8
20260509041038 18 354 0.0 0.0 0.00 0.00 0.00 88 1012.7
20260509040536 18 352 0.0 0.0 0.00 0.00 0.00 87 1012.5
20260509040033 18 355 0.0 0.0 0.00 0.00 0.00 87 1012.5
20260509035530 18 21 0.0 0.0 0.00 0.00 0.00 87 1012.6
20260509035026 18 27 0.0 0.0 0.00 0.00 0.00 87 1012.2
20260509034525 18 26 0.0 0.0 0.00 0.00 0.00 87 1012.1
20260509034021 18 271 3.2 3.2 0.00 0.00 0.00 87 1012.0
20260509033518 18 238 3.2 3.2 0.00 0.00 0.00 87 1012.1
20260509033015 18 41 0.0 0.0 0.00 0.00 0.00 87 1012.2
20260509032512 18 99 0.0 0.0 0.00 0.00 0.00 87 1012.0
20260509032009 18 162 1.6 1.6 0.00 0.00 0.00 86 1012.0
20260509031507 18 74 0.0 0.0 0.00 0.00 0.00 86 1012.1
20260509031004 18 74 0.0 0.0 0.00 0.00 0.00 86 1012.0
20260509030502 18 74 0.0 0.0 0.00 0.00 0.00 86 1011.9
20260509025954 19 74 0.0 0.0 0.00 0.00 0.00 86 1011.7
20260509025449 19 74 0.0 0.0 0.00 0.00 0.00 86 1011.7
20260509024944 19 74 0.0 0.0 0.00 0.00 0.00 86 1011.5
20260509024441 19 74 0.0 0.0 0.00 0.00 0.00 86 1011.6
20260509023937 20 76 1.6 1.6 0.00 0.00 0.00 86 1011.3
20260509023435 19 63 0.0 0.0 0.00 0.00 0.00 85 1011.7
20260509022931 19 62 1.6 1.6 0.00 0.00 0.00 85 1011.4
20260509022428 19 69 1.6 1.6 0.00 0.00 0.00 85 1011.2
20260509021926 19 74 0.0 0.0 0.00 0.00 0.00 85 1011.5
20260509021423 20 74 0.0 0.0 0.00 0.00 0.00 85 1011.6
20260509020920 20 74 0.0 0.0 0.00 0.00 0.00 84 1011.0
20260509020418 20 75 0.0 0.0 0.00 0.00 0.00 84 1010.9
20260509015915 20 75 0.0 0.0 0.00 0.00 0.00 84 1010.8
20260509015414 20 75 0.0 1.6 0.00 0.00 0.00 84 1010.8
20260509014910 20 87 1.6 1.6 0.00 0.00 0.00 84 1011.0
20260509014407 20 81 1.6 1.6 0.00 0.00 0.00 84 1010.9
20260509013904 20 103 3.2 3.2 0.00 0.00 0.00 84 1011.0
20260509013401 20 99 4.8 4.8 0.00 0.00 0.00 83 1010.8
20260509012856 20 66 1.6 3.2 0.00 0.00 0.00 83 1010.7
20260509012353 20 97 3.2 3.2 0.00 0.00 0.00 83 1010.9
20260509011850 20 85 6.4 8.0 0.00 0.00 0.00 83 1010.8
20260509011348 21 75 1.6 1.6 0.00 0.00 0.00 82 1010.9
20260509010845 21 67 1.6 1.6 0.00 0.00 0.00 82 1010.8
20260509010343 21 85 4.8 8.0 0.00 0.00 0.00 82 1010.6
20260509005840 21 81 9.7 12.9 0.00 0.00 0.00 81 1010.5
20260509005337 21 53 1.6 1.6 0.00 0.00 0.00 81 1010.9
20260509004838 21 49 1.6 1.6 0.00 0.00 0.00 81 1010.6
20260509004334 21 77 8.0 11.3 0.00 0.00 0.00 81 1010.7
20260509003832 21 79 8.0 9.7 0.00 0.00 0.00 81 1010.8
20260509003330 21 80 6.4 8.0 0.00 0.00 0.00 81 1010.9
20260509002827 21 77 4.8 8.0 0.00 0.00 0.00 81 1010.8
20260509002324 21 77 4.8 8.0 0.00 0.00 0.00 80 1011.0
20260509001822 21 105 4.8 4.8 0.00 0.00 0.00 80 1011.0
20260509001317 21 62 3.2 3.2 0.00 0.00 0.00 80 1011.0
20260509000815 21 94 8.0 9.7 0.00 0.00 0.00 80 1010.9
20260509000313 21 91 11.3 12.9 0.00 0.00 0.00 80 1010.9
20260508235809 21 80 9.7 11.3 0.00 0.00 0.00 80 1010.9
20260508235307 21 81 6.4 9.7 0.00 0.00 0.00 80 1010.8
20260508234803 21 63 11.3 11.3 0.00 0.00 0.00 79 1011.1
20260508234259 21 79 3.2 3.2 0.00 0.00 0.00 79 1011.0
20260508233758 22 111 11.3 12.9 0.00 0.00 0.00 79 1011.0
20260508233257 22 71 9.7 12.9 0.00 0.00 0.00 79 1010.8
20260508232753 22 93 4.8 4.8 0.00 0.00 0.00 79 1010.9
20260508232250 22 99 11.3 12.9 0.00 0.00 0.00 79 1010.9
20260508231748 22 107 8.0 11.3 0.00 0.00 0.00 79 1010.8
20260508231244 22 85 14.5 16.1 0.00 0.00 0.00 79 1010.9
20260508230741 22 79 11.3 16.1 0.00 0.00 0.00 79 1010.9
20260508230237 22 83 4.8 11.3 0.00 0.00 0.00 78 1010.9
20260508225735 22 116 11.3 14.5 0.00 0.00 0.00 78 1010.9
20260508225231 22 87 14.5 16.1 0.00 0.00 0.00 78 1010.8
20260508224729 22 65 8.0 11.3 0.00 0.00 0.00 78 1011.1
20260508224227 22 50 8.0 9.7 0.00 0.00 0.00 78 1010.8
20260508223724 22 73 9.7 12.9 0.00 0.00 0.00 77 1011.0
20260508223221 22 92 12.9 17.7 0.00 0.00 0.00 78 1011.0
20260508222719 22 68 4.8 9.7 0.00 0.00 0.00 77 1010.9
20260508222216 22 62 8.0 9.7 0.00 0.00 0.00 78 1010.9
20260508221712 22 119 11.3 12.9 0.00 0.00 0.00 78 1011.0
20260508221208 22 86 14.5 16.1 0.00 0.00 0.00 78 1011.0
20260508220704 22 82 8.0 12.9 0.00 0.00 0.00 77 1011.3
20260508220201 23 92 6.4 9.7 0.00 0.00 0.00 76 1011.0
20260508215658 23 83 4.8 8.0 0.00 0.00 0.00 76 1011.1
20260508215154 22 88 4.8 4.8 0.00 0.00 0.00 78 1011.1
20260508214651 22 78 8.0 9.7 0.00 0.00 0.00 78 1011.2
20260508214149 22 74 9.7 12.9 0.00 0.00 0.00 78 1011.4
20260508213645 22 83 9.7 12.9 0.00 0.00 0.00 78 1011.4
20260508213141 22 61 8.0 12.9 0.00 0.00 0.00 77 1011.3
20260508212638 22 57 9.7 11.3 0.00 0.00 0.00 77 1011.3
20260508212135 22 56 8.0 11.3 0.00 0.00 0.00 77 1011.6
20260508211635 22 82 4.8 8.0 0.00 0.00 0.00 78 1011.6
20260508211131 22 54 3.2 8.0 0.00 0.00 0.00 77 1011.7
20260508210628 22 70 4.8 4.8 0.00 0.00 0.00 76 1011.9
20260508210126 22 74 9.7 11.3 0.00 0.00 0.00 76 1012.1
20260508205623 22 38 3.2 3.2 0.00 0.00 0.00 76 1012.0
20260508205119 22 51 3.2 4.8 0.00 0.00 0.00 75 1012.2
20260508204615 22 115 3.2 3.2 0.00 0.00 0.00 76 1012.2
20260508204112 21 92 3.2 3.2 0.00 0.00 0.00 77 1012.2
20260508203608 21 75 4.8 8.0 0.00 0.00 0.00 76 1012.3
20260508203104 22 15 4.8 8.0 0.00 0.00 0.00 76 1012.1
20260508202600 21 117 6.4 11.3 0.00 0.00 0.00 77 1012.5
20260508202058 21 105 9.7 11.3 0.00 0.00 0.00 78 1012.5
20260508201554 21 72 11.3 14.5 0.00 0.00 0.00 78 1012.7
20260508201051 21 50 6.4 9.7 0.00 0.00 0.00 78 1013.0
20260508200548 21 70 8.0 9.7 0.00 0.00 0.00 78 1012.7
20260508200043 21 73 11.3 12.9 0.00 0.00 0.00 78 1012.8
20260508195541 21 69 9.7 11.3 0.00 0.00 0.00 78 1012.8
20260508195037 21 85 3.2 8.0 0.00 0.00 0.00 78 1012.9
20260508194534 20 62 9.7 11.3 0.00 0.00 0.00 78 1013.0
20260508194031 20 67 4.8 4.8 0.00 0.00 0.00 78 1012.8
20260508193527 21 37 6.4 12.9 0.00 0.00 0.00 78 1012.8
20260508193024 21 76 9.7 11.3 0.00 0.00 0.00 77 1013.0
20260508192521 20 67 3.2 3.2 0.00 0.00 0.00 78 1013.1
20260508192018 20 66 11.3 14.5 0.00 0.00 0.00 78 1013.0
20260508191515 20 45 4.8 4.8 0.00 0.00 0.00 78 1013.3
20260508191011 20 72 8.0 9.7 0.00 0.00 0.00 79 1013.3
20260508190509 19 65 4.8 11.3 0.00 0.00 0.00 80 1013.5
20260508190005 19 74 1.6 3.2 0.00 0.00 0.00 80 1013.6